Location: Newark
(36.9100°N, 76.7100°W)
Time: 04:47:15
(UTC+00:00)

OTV 5 (USA 277) - Pass Details

Date: 21 October 2019
Orbit: 310 x 324 km, 54.5° (Epoch: 17 October)

Event Time Altitude Azimuth Distance (km) Brightness Sun altitude
Exits shadow 09:52:34 71° 26° (NNE) 342 ? -18.1°
Maximum altitude 09:52:39 72° 44° (NE) 340 ? -18.1°
Drops below altitude 10° 09:55:22 10° 130° (SE) 1,223 ? -17.6°
Sets 09:57:19 0° 133° (SE) 2,048 ? -17.2°
